Location: ??????
(36.0418°N, 43.6351°E)
Time: 05:04:00
(UTC+00:00)

BREEZE-M DEB (TANK) - Pass Details

Date: 07 March 2021
Orbit: 290 x 15385 km, 49.4° (Epoch: 19 April)

Event Time Altitude Azimuth Distance (km) Brightness Sun altitude
Exits shadow 01:28:00 32° 77° (ENE) 720 4.0 -24.9°
Drops below altitude 10° 01:30:45 10° 111° (ESE) 1,998 6.4 -24.4°
Sets 01:34:39 0° 118° (ESE) 3,950 7.9 -23.6°
